[[{"header":{"parameterUnit":"m.s-1","parameterCategory":1,"la1":30.2991,"la2":30.254,"lo1":-89.0895,"lo2":-89.0444,"dy":0.0017,"dx":0.0017,"nx":28,"ny":28,"refTime":"2024-03-26T21:00:00:Z","depth":0,"parameterNumber":2,"parameterNumberName":"U-component_of_WINDS"},"data":[0,0,0,0,0,0,0,0,0,0,0,0,0,0,0,0,0,0,0,0,0,0,0,0,0,0,0,0,0,0,0,0,0,0,0,0,0,0,0,0,0,0,0,0,0,0,0,0,0,0,0,0,0,0,0,0,0,0,0.9668,0.9668,0,0.9687,0.9687,0.9687,0.9691,0.9691,0.9691,0.969,0.9709,0.9709,0.971,0,0,0,0,0,0,0,0,0,0,0,0,0,0.9635,0.9636,0.9668,0.9668,0.9668,0.9687,0.9687,0.9688,0.9691,0.9691,0.9691,0.969,0.9709,0.9709,0.971,0,0,0,0,0,0,0,0,0,0,0,0,0,0.9652,0.9636,0.9668,0.9672,0.9673,0.9687,0.9687,0.9688,0.9691,0.9691,0.969,0.969,0.9708,0.9709,0.971,0.9721,0,0,0.9713,0.9714,0,0,0,0,0,0,0,0,0.9651,0.9653,0.9672,0.9672,0.9673,0.9686,0.9683,0.9699,0.9691,0.9684,0.969,0.969,0.9701,0.9703,0.9707,0.9722,0.9722,0.9713,0.9714,0.9714,0.9714,0,0,0,0,0,0,0,0.9649,0.9652,0.9675,0.9672,0.9673,0.9674,0.9676,0.9686,0.9694,0.9685,0.9685,0.9687,0.9702,0.9706,0.9707,0.9723,0.9713,0.9714,0.9715,0.9715,0.9749,0.975,0,0,0,0,0,0,0.9648,0.9651,0.9675,0.9676,0.9661,0.9675,0.9677,0.9682,0.9694,0.9695,0.9687,0.9687,0.9705,0.9706,0.9708,0.9723,0.9714,0.9715,0.9716,0.9749,0.975,0.975,0,0,0,0,0,0,0.9647,0.965,0.9674,0.9664,0.9667,0.9675,0.9681,0.9683,0.9687,0.9696,0.9697,0.969,0.9704,0.9707,0.9718,0.9723,0.9716,0.9716,0.9749,0.9749,0.975,0.9751,0,0,0,0,0,0,0.9646,0.9649,0.9653,0.9664,0.9667,0.9684,0.9682,0.9683,0.9689,0.9689,0.9699,0.97,0.9704,0.9717,0.9719,0.9724,0.9717,0.9748,0.9749,0.975,0.975,0.9751,0.9752,0,0,0,0,0,0.9645,0.9652,0.9653,0.9656,0.9672,0.9684,0.9686,0.9691,0.9689,0.9693,0.9699,0.97,0.9723,0.9718,0.9721,0.9726,0.9748,0.9749,0.9749,0.975,0.9751,0.9752,0,0,0,0,0,0,0.964,0.9653,0.9655,0.9666,0.9674,0.9684,0.9689,0.9692,0.97,0.97,0.9705,0.9708,0.9719,0.9724,0.9718,0.9738,0.9735,0.9737,0.9734,0.9736,0.9737,0.9735,0.9718,0,0,0,0,0,0.9641,0.9649,0.966,0.9668,0.9673,0.9681,0.9686,0.9689,0.9698,0.9701,0.9708,0.9716,0.9725,0.9731,0.9739,0.9751,0.9754,0.9757,0.9758,0.9758,0.9759,0.9768,0.9769,0.9752,0.9752,0.9752,0,0,0.9641,0.965,0.9654,0.9668,0.9675,0.9684,0.9683,0.9692,0.9699,0.9702,0.9714,0.9719,0.9729,0.9741,0.9747,0.9745,0.9765,0.9759,0.976,0.976,0.9769,0.977,0.9772,0.9753,0.9753,0.9753,0,0,0.9647,0.9654,0.9663,0.967,0.9681,0.9686,0.9689,0.97,0.9704,0.9716,0.9719,0.9727,0.9742,0.975,0.9755,0.9767,0.9769,0.977,0.9774,0.9783,0.9784,0.9785,0.979,0.9792,0.9771,0.9771,0.9771,0,0.9647,0.966,0.9667,0.9676,0.9683,0.9687,0.9697,0.9703,0.9716,0.9721,0.9719,0.974,0.9747,0.9762,0.9765,0.9769,0.9773,0.9768,0.9783,0.9785,0.9786,0.9791,0.9793,0.9771,0.9771,0.9771,0.9771,0,0.966,0.9669,0.9675,0.9688,0.9696,0.9705,0.9714,0.972,0.9724,0.973,0.9743,0.9752,0.9763,0.9767,0.977,0.9783,0.9782,0.9782,0.9779,0.9788,0.9792,0.9794,0.9772,0.9771,0.9771,0.9771,0,0,0.9661,0.968,0.9682,0.9689,0.9703,0.971,0.9721,0.9733,0.9739,0.9749,0.9758,0.9772,0.9773,0.9779,0.9784,0.9791,0.9802,0.979,0.979,0.9792,0.9818,0.9818,0.982,0.9803,0.9803,0.9804,0.9817,0,0.9669,0.9688,0.9695,0.9711,0.972,0.9726,0.9736,0.9745,0.9752,0.9762,0.9769,0.9779,0.9779,0.9783,0.9791,0.9799,0.9807,0.9798,0.9812,0.9813,0.9809,0.9823,0.9822,0.9835,0.9819,0.982,0.982,0,0.968,0.9691,0.9708,0.9722,0.9726,0.9735,0.9748,0.9757,0.9768,0.9773,0.9782,0.9786,0.9798,0.9795,0.9813,0.9807,0.9813,0.9818,0.9819,0.982,0.9816,0.9824,0.9839,0.9841,0.9823,0.9822,0.9822,0,0.968,0.9699,0.9712,0.9718,0.9735,0.9741,0.9748,0.976,0.9768,0.9779,0.9784,0.9797,0.9804,0.9814,0.9822,0.9819,0.9839,0.9836,0.9843,0.9843,0.9847,0.9846,0.9862,0.9851,0.9851,0.9851,0.9851,0,0.9688,0.9698,0.9713,0.9721,0.9733,0.9742,0.9754,0.9762,0.9773,0.9783,0.9789,0.9798,0.9809,0.982,0.9826,0.984,0.9843,0.9848,0.9849,0.9847,0.9847,0.9851,0.985,0.9852,0.9851,0.9851,0.9851,0,0.969,0.97,0.9715,0.9731,0.9735,0.9743,0.9757,0.9765,0.9773,0.9786,0.979,0.9802,0.9816,0.9826,0.9842,0.9847,0.9863,0.9864,0.9859,0.986,0.9867,0.9866,0.9886,0.9889,0.9876,0.9876,0.9876,0,0.9694,0.9702,0.972,0.9727,0.9735,0.9747,0.9755,0.9765,0.9774,0.979,0.9796,0.9811,0.9823,0.9844,0.9855,0.9869,0.9871,0.9877,0.9873,0.9871,0.9871,0.9871,0.9872,0.9877,0.9877,0.9877,0.9877,0,0.9701,0.9706,0.9718,0.9732,0.9742,0.9754,0.9766,0.9772,0.9784,0.9794,0.9808,0.9818,0.9837,0.9851,0.9866,0.9874,0.9878,0.9879,0.9882,0.9879,0.9876,0.9879,0.9861,0.9878,0.9878,0.9878,0.9878,0.9878,0.9704,0.9712,0.9726,0.974,0.9751,0.9762,0.9771,0.9782,0.9794,0.981,0.9816,0.9831,0.9845,0.9866,0.9875,0.9888,0.9887,0.989,0.9891,0.9892,0.9892,0.9875,0.989,0.989,0.989,0.989,0.989,0,0.9711,0.9721,0.9734,0.9751,0.9762,0.9766,0.978,0.979,0.9803,0.9816,0.9829,0.9846,0.9861,0.9874,0.989,0.9897,0.99,0.9901,0.9901,0.9903,0.9892,0.9888,0.9899,0.9899,0.9899,0.9899,0.9899,0.9899,0.9716,0.9731,0.9739,0.9759,0.977,0.9785,0.9793,0.9804,0.9815,0.9835,0.9847,0.9856,0.987,0.9887,0.9901,0.9904,0.991,0.9911,0.9915,0.9904,0.9903,0.9902,0.9899,0.9912,0.9912,0.9925,0.9925,0.9925]},{"header":{"parameterUnit":"m.s-1","parameterCategory":1,"la1":30.2991,"la2":30.254,"lo1":-89.0895,"lo2":-89.0444,"dy":0.0017,"dx":0.0017,"nx":28,"ny":28,"refTime":"2024-03-26T21:00:00:Z","depth":0,"parameterNumber":3,"parameterNumberName":"V-component_of_WINDS"},"data":[0,0,0,0,0,0,0,0,0,0,0,0,0,0,0,0,0,0,0,0,0,0,0,0,0,0,0,0,0,0,0,0,0,0,0,0,0,0,0,0,0,0,0,0,0,0,0,0,0,0,0,0,0,0,0,0,0,0,-5.2762,-5.2761,0,-5.2731,-5.2731,-5.2731,-5.2709,-5.2709,-5.2708,-5.2708,-5.2671,-5.267,-5.2669,0,0,0,0,0,0,0,0,0,0,0,0,0,-5.2797,-5.2796,-5.2762,-5.2761,-5.2761,-5.2732,-5.2731,-5.2731,-5.2709,-5.2709,-5.2708,-5.2708,-5.2671,-5.267,-5.2669,0,0,0,0,0,0,0,0,0,0,0,0,0,-5.2775,-5.2796,-5.2762,-5.2747,-5.2745,-5.2732,-5.2731,-5.2731,-5.2709,-5.2709,-5.2708,-5.2708,-5.2671,-5.267,-5.2669,-5.2666,0,0,-5.2665,-5.2665,0,0,0,0,0,0,0,0,-5.2777,-5.2774,-5.2749,-5.2748,-5.2746,-5.2724,-5.273,-5.2709,-5.2709,-5.2722,-5.2708,-5.2708,-5.2688,-5.2686,-5.268,-5.2664,-5.2663,-5.2665,-5.2664,-5.2664,-5.2663,0,0,0,0,0,0,0,-5.2778,-5.2775,-5.2749,-5.2749,-5.2747,-5.274,-5.2737,-5.2726,-5.2707,-5.2721,-5.272,-5.2717,-5.2687,-5.2681,-5.2679,-5.2662,-5.2665,-5.2664,-5.2663,-5.2663,-5.2645,-5.2646,0,0,0,0,0,0,-5.2783,-5.2777,-5.275,-5.2749,-5.2761,-5.274,-5.2736,-5.2731,-5.2707,-5.2703,-5.2717,-5.2716,-5.2684,-5.2681,-5.2678,-5.2675,-5.2664,-5.2662,-5.2662,-5.2645,-5.2645,-5.2646,0,0,0,0,0,0,-5.2783,-5.278,-5.2752,-5.2762,-5.2758,-5.2739,-5.2734,-5.2731,-5.2725,-5.2704,-5.27,-5.2715,-5.2683,-5.268,-5.267,-5.2673,-5.2662,-5.2661,-5.2645,-5.2645,-5.2646,-5.2668,0,0,0,0,0,0,-5.2785,-5.2781,-5.278,-5.2762,-5.2758,-5.2746,-5.2734,-5.273,-5.2724,-5.2722,-5.2701,-5.2697,-5.2683,-5.2672,-5.2669,-5.2671,-5.266,-5.2644,-5.2645,-5.2645,-5.2667,-5.2669,-5.2671,0,0,0,0,0,-5.2786,-5.2786,-5.278,-5.2777,-5.2757,-5.2746,-5.2743,-5.2729,-5.2724,-5.2723,-5.271,-5.2698,-5.2674,-5.2672,-5.2668,-5.267,-5.2644,-5.2645,-5.2645,-5.2666,-5.2669,-5.2671,0,0,0,0,0,0,-5.2801,-5.2783,-5.2777,-5.2771,-5.2761,-5.2743,-5.274,-5.2732,-5.2721,-5.2719,-5.27,-5.2696,-5.2689,-5.2678,-5.2676,-5.2667,-5.2657,-5.2657,-5.2674,-5.2677,-5.2679,-5.2682,-5.2659,0,0,0,0,0,-5.2804,-5.2799,-5.2782,-5.2779,-5.2775,-5.2759,-5.2753,-5.2744,-5.2731,-5.2726,-5.2712,-5.2699,-5.2689,-5.2682,-5.2671,-5.2666,-5.2661,-5.2665,-5.2667,-5.2669,-5.2669,-5.2668,-5.267,-5.2648,-5.2648,-5.2648,0,0,-5.2809,-5.2799,-5.2796,-5.2782,-5.2773,-5.2767,-5.2755,-5.2748,-5.2743,-5.2724,-5.2716,-5.2706,-5.269,-5.2683,-5.2679,-5.2674,-5.2675,-5.267,-5.2672,-5.2671,-5.2669,-5.2671,-5.2673,-5.2649,-5.2648,-5.2648,0,0,-5.2817,-5.2808,-5.2806,-5.2798,-5.2786,-5.2776,-5.2776,-5.2759,-5.2753,-5.2745,-5.2731,-5.2725,-5.2707,-5.2697,-5.269,-5.2698,-5.2687,-5.2694,-5.2705,-5.2704,-5.2706,-5.2707,-5.2712,-5.2714,-5.2695,-5.2695,-5.2695,0,-5.2824,-5.2817,-5.2805,-5.2801,-5.2795,-5.2781,-5.2779,-5.2771,-5.2754,-5.2751,-5.2745,-5.2726,-5.2713,-5.2706,-5.2708,-5.2702,-5.2701,-5.2696,-5.2707,-5.2708,-5.271,-5.2714,-5.2715,-5.2696,-5.2696,-5.2696,-5.2695,0,-5.2828,-5.2823,-5.2822,-5.2811,-5.2805,-5.2801,-5.2789,-5.2784,-5.2776,-5.2767,-5.276,-5.2746,-5.2733,-5.2731,-5.272,-5.2722,-5.272,-5.2711,-5.2701,-5.2713,-5.2717,-5.2718,-5.2697,-5.2697,-5.2697,-5.2696,0,0,-5.2841,-5.2827,-5.2827,-5.2823,-5.281,-5.2805,-5.2801,-5.2792,-5.279,-5.2779,-5.2776,-5.2763,-5.2757,-5.2749,-5.2738,-5.2737,-5.2747,-5.2729,-5.2728,-5.2734,-5.275,-5.2757,-5.2759,-5.274,-5.274,-5.274,-5.2752,0,-5.2847,-5.2843,-5.2833,-5.2831,-5.2827,-5.2815,-5.2812,-5.2804,-5.2796,-5.279,-5.278,-5.2773,-5.2763,-5.2759,-5.2758,-5.2746,-5.275,-5.2745,-5.2736,-5.2736,-5.2742,-5.2761,-5.2768,-5.2779,-5.2753,-5.2753,-5.2753,0,-5.2853,-5.2848,-5.2846,-5.2837,-5.2835,-5.2833,-5.2825,-5.282,-5.2811,-5.2805,-5.2799,-5.2788,-5.2784,-5.2775,-5.2769,-5.2766,-5.2762,-5.2756,-5.2756,-5.2755,-5.2746,-5.2761,-5.2782,-5.2784,-5.2755,-5.2755,-5.2755,0,-5.2865,-5.2857,-5.2856,-5.2853,-5.2841,-5.2841,-5.2835,-5.2826,-5.2822,-5.2815,-5.2813,-5.2804,-5.2799,-5.2793,-5.2781,-5.2775,-5.2777,-5.2766,-5.2772,-5.2772,-5.2772,-5.2772,-5.2794,-5.2769,-5.2769,-5.2769,-5.2769,0,-5.2873,-5.2873,-5.2862,-5.2861,-5.2861,-5.2851,-5.285,-5.2844,-5.2836,-5.2834,-5.2822,-5.282,-5.2804,-5.2799,-5.2789,-5.2787,-5.2784,-5.278,-5.2777,-5.2781,-5.2782,-5.2778,-5.2777,-5.2769,-5.2769,-5.2769,-5.2769,0,-5.2886,-5.2879,-5.2877,-5.2868,-5.2866,-5.2867,-5.2858,-5.2857,-5.285,-5.2847,-5.2846,-5.2833,-5.2828,-5.2816,-5.2806,-5.28,-5.28,-5.2795,-5.2804,-5.2803,-5.281,-5.281,-5.283,-5.2833,-5.2805,-5.2805,-5.2806,0,-5.2892,-5.2892,-5.2885,-5.2884,-5.288,-5.2878,-5.2876,-5.2866,-5.2863,-5.2855,-5.2855,-5.285,-5.2845,-5.2837,-5.2826,-5.2819,-5.2815,-5.2822,-5.2813,-5.2818,-5.2816,-5.2817,-5.2818,-5.2824,-5.2825,-5.2825,-5.2825,0,-5.2903,-5.2901,-5.2899,-5.2896,-5.2895,-5.2891,-5.2887,-5.2887,-5.2876,-5.2874,-5.287,-5.2867,-5.2859,-5.2854,-5.2847,-5.284,-5.2831,-5.2829,-5.283,-5.2834,-5.284,-5.2838,-5.2811,-5.2828,-5.2827,-5.2827,-5.2827,-5.2827,-5.2913,-5.2914,-5.2911,-5.2909,-5.2906,-5.2904,-5.2904,-5.2898,-5.2896,-5.2891,-5.2885,-5.2883,-5.2876,-5.2865,-5.286,-5.2858,-5.2852,-5.2853,-5.2854,-5.2855,-5.2857,-5.2841,-5.2856,-5.2856,-5.2856,-5.2855,-5.2855,0,-5.2925,-5.2923,-5.2923,-5.292,-5.2919,-5.2914,-5.291,-5.291,-5.2909,-5.2904,-5.2901,-5.2899,-5.2895,-5.2886,-5.2881,-5.2881,-5.2877,-5.288,-5.288,-5.2879,-5.2861,-5.2861,-5.2884,-5.2884,-5.2884,-5.2884,-5.2884,-5.2884,-5.2931,-5.2934,-5.2932,-5.2933,-5.293,-5.293,-5.2929,-5.2927,-5.2924,-5.2922,-5.292,-5.2916,-5.291,-5.2905,-5.2902,-5.2899,-5.2898,-5.2903,-5.2899,-5.2883,-5.288,-5.2877,-5.2878,-5.2903,-5.2903,-5.2918,-5.2918,-5.2918]}]]